FW9780 Weather Reports


time (UTC)temp
F
wind
direction
speed
knots
gust
knots
rain 1hr
in
rain 24hr
in
rain mn
in
humidity
%
barometer
mb
20220628165001 11 0 0.0 0.0 0.00 0.00 0.00 13 895.9
20220628164802 11 0 0.0 0.0 0.00 0.00 0.00 13 896.0
20220628164647 11 0 0.0 0.0 0.00 0.00 0.00 13 896.0
20220628164402 11 0 0.0 0.0 0.00 0.00 0.00 13 896.0
20220628164202 11 0 0.0 0.0 0.00 0.00 0.00 14 896.0
20220628164002 11 0 0.0 0.0 0.00 0.00 0.00 14 896.0
20220628163802 11 0 0.0 0.0 0.00 0.00 0.00 14 896.0
20220628163602 11 0 0.0 0.0 0.00 0.00 0.00 14 896.0
20220628163402 11 0 0.0 0.0 0.00 0.00 0.00 13 896.0
20220628163202 11 0 0.0 0.0 0.00 0.00 0.00 12 896.0
20220628163002 11 0 0.0 0.0 0.00 0.00 0.00 12 896.1
20220628162802 12 0 0.0 0.0 0.00 0.00 0.00 11 896.1
20220628162602 12 0 0.0 0.0 0.00 0.00 0.00 11 896.1
20220628162401 12 0 0.0 0.0 0.00 0.00 0.00 11 896.1
20220628162202 12 0 0.0 0.0 0.00 0.00 0.00 11 896.1
20220628162001 12 0 0.0 0.0 0.00 0.00 0.00 11 896.1
20220628161802 12 0 0.0 0.0 0.00 0.00 0.00 11 896.2
20220628161601 12 0 0.0 0.0 0.00 0.00 0.00 12 896.1
20220628161402 11 0 0.0 0.0 0.00 0.00 0.00 12 896.2
20220628161201 12 0 0.0 0.0 0.00 0.00 0.00 12 896.2
20220628161002 11 0 0.0 0.0 0.00 0.00 0.00 12 896.2
20220628160801 11 0 0.0 0.0 0.00 0.00 0.00 12 896.1
20220628160602 11 0 0.0 0.0 0.00 0.00 0.00 12 896.2
20220628160401 11 0 0.0 0.0 0.00 0.00 0.00 13 896.1
20220628160202 11 0 0.0 0.0 0.00 0.00 0.00 12 896.1
20220628160001 11 0 0.0 0.0 0.00 0.00 0.00 12 896.2
20220628155802 11 0 0.0 0.0 0.00 0.00 0.00 12 896.2
20220628155602 11 0 0.0 0.0 0.00 0.00 0.00 12 896.2
20220628155402 11 0 0.0 0.0 0.00 0.00 0.00 12 896.3
20220628155202 11 0 0.0 0.0 0.00 0.00 0.00 12 896.3
20220628155002 11 0 0.0 0.0 0.00 0.00 0.00 13 896.2
20220628154801 11 0 0.0 0.0 0.00 0.00 0.00 12 896.3
20220628154602 11 0 0.0 0.0 0.00 0.00 0.00 12 896.3
20220628154401 11 0 0.0 0.0 0.00 0.00 0.00 12 896.3
20220628154202 11 0 0.0 0.0 0.00 0.00 0.00 12 896.4
20220628154002 11 0 0.0 0.0 0.00 0.00 0.00 13 896.3
20220628153802 11 0 0.0 0.0 0.00 0.00 0.00 13 896.3
20220628153601 11 0 0.0 0.0 0.00 0.00 0.00 13 896.3
20220628153402 11 0 0.0 0.0 0.00 0.00 0.00 13 896.3
20220628153202 11 0 0.0 0.0 0.00 0.00 0.00 14 896.3
20220628153002 11 0 0.0 0.0 0.00 0.00 0.00 14 896.3
20220628152802 11 0 0.0 0.0 0.00 0.00 0.00 14 896.3
20220628152602 11 0 0.0 0.0 0.00 0.00 0.00 14 896.4
20220628152402 11 0 0.0 0.0 0.00 0.00 0.00 15 896.5
20220628152202 11 0 0.0 0.0 0.00 0.00 0.00 15 896.4
20220628152003 11 0 0.0 0.0 0.00 0.00 0.00 16 896.5
20220628151801 10 0 0.0 0.0 0.00 0.00 0.00 16 896.4
20220628151602 10 0 0.0 0.0 0.00 0.00 0.00 17 896.5
20220628151401 10 0 0.0 0.0 0.00 0.00 0.00 17 896.4
20220628151202 10 0 0.0 0.0 0.00 0.00 0.00 18 896.3
20220628151001 10 0 0.0 0.0 0.00 0.00 0.00 18 896.4
20220628150802 10 0 0.0 0.0 0.00 0.00 0.00 19 896.3
20220628150602 10 0 0.0 0.0 0.00 0.00 0.00 20 896.4
20220628150402 10 0 0.0 0.0 0.00 0.00 0.00 21 896.4
20220628150202 98 0 0.0 0.0 0.00 0.00 0.00 22 896.5
20220628150002 96 0 0.0 0.0 0.00 0.00 0.00 24 896.4
20220628145802 95 0 0.0 0.0 0.00 0.00 0.00 26 896.5
20220628145602 93 0 0.0 0.0 0.00 0.00 0.00 27 896.4
20220628145402 89 0 0.0 0.0 0.00 0.00 0.00 30 896.5
20220628145202 87 0 0.0 0.0 0.00 0.00 0.00 32 896.4
20220628145002 86 0 0.0 0.0 0.00 0.00 0.00 33 896.4
20220628144802 84 0 0.0 0.0 0.00 0.00 0.00 34 896.4
20220628144602 84 0 0.0 0.0 0.00 0.00 0.00 35 896.5
20220628144402 84 0 0.0 0.0 0.00 0.00 0.00 35 896.5
20220628144201 84 0 0.0 0.0 0.00 0.00 0.00 35 896.5
20220628144002 84 0 0.0 0.0 0.00 0.00 0.00 36 896.5
20220628143801 82 0 0.0 0.0 0.00 0.00 0.00 36 896.5
20220628143602 82 0 0.0 0.0 0.00 0.00 0.00 36 896.5
20220628143402 82 0 0.0 0.0 0.00 0.00 0.00 37 896.6
20220628143202 80 0 0.0 0.0 0.00 0.00 0.00 38 896.6
20220628143002 82 0 0.0 0.0 0.00 0.00 0.00 37 896.6
20220628142802 82 0 0.0 0.0 0.00 0.00 0.00 36 896.5
20220628142602 82 0 0.0 0.0 0.00 0.00 0.00 36 896.6
20220628142402 82 0 0.0 0.0 0.00 0.00 0.00 36 896.5
20220628142202 82 0 0.0 0.0 0.00 0.00 0.00 36 896.7
20220628142002 82 0 0.0 0.0 0.00 0.00 0.00 36 896.6
20220628141802 82 0 0.0 0.0 0.00 0.00 0.00 36 896.6
20220628141602 82 0 0.0 0.0 0.00 0.00 0.00 36 896.6
20220628141402 82 0 0.0 0.0 0.00 0.00 0.00 36 896.6
20220628141202 82 0 0.0 0.0 0.00 0.00 0.00 36 896.6
20220628141002 82 0 0.0 0.0 0.00 0.00 0.00 36 896.6
20220628140802 82 0 0.0 0.0 0.00 0.00 0.00 37 896.5
20220628140602 82 0 0.0 0.0 0.00 0.00 0.00 37 896.5
20220628140401 82 0 0.0 0.0 0.00 0.00 0.00 37 896.4
20220628140202 82 0 0.0 0.0 0.00 0.00 0.00 37 896.5
20220628140001 82 0 0.0 0.0 0.00 0.00 0.00 38 896.5
20220628135802 80 0 0.0 0.0 0.00 0.00 0.00 38 896.6
20220628135601 80 0 0.0 0.0 0.00 0.00 0.00 38 896.5
20220628135402 80 0 0.0 0.0 0.00 0.00 0.00 39 896.5
20220628135202 80 0 0.0 0.0 0.00 0.00 0.00 39 896.5
20220628135002 80 0 0.0 0.0 0.00 0.00 0.00 39 896.5
20220628134802 80 0 0.0 0.0 0.00 0.00 0.00 40 896.4
20220628134602 80 0 0.0 0.0 0.00 0.00 0.00 40 896.4
20220628134401 78 0 0.0 0.0 0.00 0.00 0.00 41 896.4
20220628134202 78 0 0.0 0.0 0.00 0.00 0.00 41 896.4
20220628134001 78 0 0.0 0.0 0.00 0.00 0.00 41 896.4
20220628133802 80 0 0.0 0.0 0.00 0.00 0.00 41 896.3
20220628133601 80 0 0.0 0.0 0.00 0.00 0.00 41 896.3
20220628133402 80 0 0.0 0.0 0.00 0.00 0.00 41 896.4
20220628133201 80 0 0.0 0.0 0.00 0.00 0.00 40 896.3
20220628133002 80 0 0.0 0.0 0.00 0.00 0.00 40 896.3
20220628132801 80 0 0.0 0.0 0.00 0.00 0.00 41 896.3
20220628132602 78 0 0.0 0.0 0.00 0.00 0.00 41 896.2
20220628132402 78 0 0.0 0.0 0.00 0.00 0.00 41 896.2
20220628132202 78 0 0.0 0.0 0.00 0.00 0.00 41 896.1
20220628132002 78 0 0.0 0.0 0.00 0.00 0.00 41 896.1
20220628131802 78 0 0.0 0.0 0.00 0.00 0.00 41 896.2
20220628131602 78 0 0.0 0.0 0.00 0.00 0.00 41 896.2
20220628131402 78 0 0.0 0.0 0.00 0.00 0.00 41 896.2
20220628131202 78 0 0.0 0.0 0.00 0.00 0.00 41 896.2
20220628131001 78 0 0.0 0.0 0.00 0.00 0.00 42 896.2
20220628130802 78 0 0.0 0.0 0.00 0.00 0.00 41 896.1
20220628130602 78 0 0.0 0.0 0.00 0.00 0.00 41 896.1
20220628130401 78 0 0.0 0.0 0.00 0.00 0.00 41 896.2
20220628130202 78 0 0.0 0.0 0.00 0.00 0.00 41 896.1
20220628130002 78 0 0.0 0.0 0.00 0.00 0.00 41 896.1
20220628125802 78 0 0.0 0.0 0.00 0.00 0.00 41 896.1
20220628125601 78 0 0.0 0.0 0.00 0.00 0.00 42 896.1
20220628125402 78 0 0.0 0.0 0.00 0.00 0.00 41 896.0
20220628125002 78 0 0.0 0.0 0.00 0.00 0.00 41 896.2
20220628124802 78 0 0.0 0.0 0.00 0.00 0.00 41 896.1
20220628124602 78 0 0.0 0.0 0.00 0.00 0.00 41 896.1
20220628124403 78 0 0.0 0.0 0.00 0.00 0.00 41 896.1
20220628124202 78 0 0.0 0.0 0.00 0.00 0.00 41 896.1
20220628124002 78 0 0.0 0.0 0.00 0.00 0.00 41 896.1
20220628123802 78 0 0.0 0.0 0.00 0.00 0.00 41 896.0
20220628123602 78 0 0.0 0.0 0.00 0.00 0.00 42 896.1
20220628123402 78 0 0.0 0.0 0.00 0.00 0.00 42 896.0
20220628123202 78 0 0.0 0.0 0.00 0.00 0.00 42 896.0
20220628123002 78 0 0.0 0.0 0.00 0.00 0.00 42 895.9
20220628122802 78 0 0.0 0.0 0.00 0.00 0.00 42 895.9
20220628122602 78 0 0.0 0.0 0.00 0.00 0.00 42 895.8
20220628122402 78 0 0.0 0.0 0.00 0.00 0.00 42 895.8
20220628122202 77 0 0.0 0.0 0.00 0.00 0.00 43 895.9
20220628122002 77 0 0.0 0.0 0.00 0.00 0.00 43 895.8
20220628121802 77 0 0.0 0.0 0.00 0.00 0.00 43 895.9
20220628121602 77 0 0.0 0.0 0.00 0.00 0.00 43 895.9
20220628121402 77 0 0.0 0.0 0.00 0.00 0.00 43 895.9
20220628121202 77 0 0.0 0.0 0.00 0.00 0.00 43 895.9
20220628121002 77 0 0.0 0.0 0.00 0.00 0.00 43 895.9
20220628120802 77 0 0.0 0.0 0.00 0.00 0.00 43 895.9
20220628120602 77 0 0.0 0.0 0.00 0.00 0.00 43 895.9
20220628120402 77 0 0.0 0.0 0.00 0.00 0.00 43 895.9
20220628120201 77 0 0.0 0.0 0.00 0.00 0.00 43 895.9
20220628120002 77 0 0.0 0.0 0.00 0.00 0.00 42 895.8
20220628115801 78 0 0.0 0.0 0.00 0.00 0.00 42 895.8
20220628115602 78 0 0.0 0.0 0.00 0.00 0.00 41 895.8
20220628115402 78 0 0.0 0.0 0.00 0.00 0.00 41 895.8
20220628115202 78 0 0.0 0.0 0.00 0.00 0.00 41 895.7
20220628115002 78 0 0.0 0.0 0.00 0.00 0.00 41 895.8
20220628114802 78 0 0.0 0.0 0.00 0.00 0.00 41 895.6
20220628114602 78 0 0.0 0.0 0.00 0.00 0.00 41 895.6
20220628114402 78 0 0.0 0.0 0.00 0.00 0.00 41 895.7
20220628114202 78 0 0.0 0.0 0.00 0.00 0.00 41 895.7
20220628114002 78 0 0.0 0.0 0.00 0.00 0.00 40 895.6
20220628113602 78 0 0.0 0.0 0.00 0.00 0.00 40 895.6
20220628113402 78 0 0.0 0.0 0.00 0.00 0.00 40 895.6
20220628113202 78 0 0.0 0.0 0.00 0.00 0.00 40 895.6
20220628113002 78 0 0.0 0.0 0.00 0.00 0.00 40 895.5
20220628112802 78 0 0.0 0.0 0.00 0.00 0.00 40 895.6
20220628112602 78 0 0.0 0.0 0.00 0.00 0.00 40 895.6
20220628112402 78 0 0.0 0.0 0.00 0.00 0.00 40 895.5
20220628112202 78 0 0.0 0.0 0.00 0.00 0.00 40 895.5
20220628112002 78 0 0.0 0.0 0.00 0.00 0.00 40 895.5
20220628111802 78 0 0.0 0.0 0.00 0.00 0.00 40 895.5
20220628111602 78 0 0.0 0.0 0.00 0.00 0.00 41 895.5
20220628111402 78 0 0.0 0.0 0.00 0.00 0.00 41 895.5
20220628111202 78 0 0.0 0.0 0.00 0.00 0.00 41 895.5
20220628111002 78 0 0.0 0.0 0.00 0.00 0.00 41 895.6
20220628110802 78 0 0.0 0.0 0.00 0.00 0.00 41 895.4
20220628110602 78 0 0.0 0.0 0.00 0.00 0.00 41 895.4
20220628110401 78 0 0.0 0.0 0.00 0.00 0.00 41 895.4
20220628110202 78 0 0.0 0.0 0.00 0.00 0.00 41 895.4
20220628110001 78 0 0.0 0.0 0.00 0.00 0.00 41 895.4
20220628105802 78 0 0.0 0.0 0.00 0.00 0.00 42 895.4
20220628105601 78 0 0.0 0.0 0.00 0.00 0.00 42 895.4
20220628105402 78 0 0.0 0.0 0.00 0.00 0.00 41 895.4
20220628105201 78 0 0.0 0.0 0.00 0.00 0.00 41 895.3
20220628105002 78 0 0.0 0.0 0.00 0.00 0.00 41 895.3
20220628104801 78 0 0.0 0.0 0.00 0.00 0.00 41 895.3
20220628104602 78 0 0.0 0.0 0.00 0.00 0.00 40 895.3
20220628104403 80 0 0.0 0.0 0.00 0.00 0.00 40 895.2
20220628104202 80 0 0.0 0.0 0.00 0.00 0.00 40 895.3
20220628104001 80 0 0.0 0.0 0.00 0.00 0.00 40 895.2
20220628103802 80 0 0.0 0.0 0.00 0.00 0.00 40 895.2
20220628103602 80 0 0.0 0.0 0.00 0.00 0.00 40 895.2
20220628103402 80 0 0.0 0.0 0.00 0.00 0.00 40 895.1
20220628103201 80 0 0.0 0.0 0.00 0.00 0.00 40 895.2
20220628103002 80 0 0.0 0.0 0.00 0.00 0.00 40 895.2
20220628102802 80 0 0.0 0.0 0.00 0.00 0.00 40 895.2
20220628102602 80 0 0.0 0.0 0.00 0.00 0.00 39 895.3
20220628102402 80 0 0.0 0.0 0.00 0.00 0.00 39 895.2
20220628102202 80 0 0.0 0.0 0.00 0.00 0.00 39 895.2
20220628102002 80 0 0.0 0.0 0.00 0.00 0.00 39 895.2
20220628101802 80 0 0.0 0.0 0.00 0.00 0.00 39 895.2
20220628101602 80 0 0.0 0.0 0.00 0.00 0.00 38 895.3
20220628101202 80 0 0.0 0.0 0.00 0.00 0.00 38 895.2
20220628101002 80 0 0.0 0.0 0.00 0.00 0.00 38 895.2
20220628100802 80 0 0.0 0.0 0.00 0.00 0.00 38 895.1
20220628100601 80 0 0.0 0.0 0.00 0.00 0.00 39 895.1
20220628100402 80 0 0.0 0.0 0.00 0.00 0.00 38 895.2
20220628100202 80 0 0.0 0.0 0.00 0.00 0.00 38 895.1
20220628100002 80 0 0.0 0.0 0.00 0.00 0.00 38 895.1
20220628095801 80 0 0.0 0.0 0.00 0.00 0.00 38 895.1
20220628095602 80 0 0.0 0.0 0.00 0.00 0.00 38 895.1
20220628095401 80 0 0.0 0.0 0.00 0.00 0.00 38 895.0
20220628095202 80 0 0.0 0.0 0.00 0.00 0.00 38 895.0
20220628095001 80 0 0.0 0.0 0.00 0.00 0.00 38 895.0
20220628094802 80 0 0.0 0.0 0.00 0.00 0.00 38 895.0
20220628094601 80 0 0.0 0.0 0.00 0.00 0.00 38 895.0
20220628094402 80 0 0.0 0.0 0.00 0.00 0.00 38 894.9
20220628094202 80 0 0.0 0.0 0.00 0.00 0.00 37 894.9
20220628094002 80 0 0.0 0.0 0.00 0.00 0.00 37 894.9
20220628093801 80 0 0.0 0.0 0.00 0.00 0.00 37 894.9
20220628093602 80 0 0.0 0.0 0.00 0.00 0.00 37 894.9
20220628093402 80 0 0.0 0.0 0.00 0.00 0.00 37 895.0
20220628093202 80 0 0.0 0.0 0.00 0.00 0.00 38 894.9
20220628093002 80 0 0.0 0.0 0.00 0.00 0.00 37 895.0
20220628092802 80 0 0.0 0.0 0.00 0.00 0.00 37 895.0
20220628092602 80 0 0.0 0.0 0.00 0.00 0.00 37 895.0
20220628092402 80 0 0.0 0.0 0.00 0.00 0.00 37 895.0
20220628092202 80 0 0.0 0.0 0.00 0.00 0.00 37 895.0
20220628092001 80 0 0.0 0.0 0.00 0.00 0.00 38 895.0
20220628091802 80 0 0.0 0.0 0.00 0.00 0.00 37 895.0
20220628091601 80 0 0.0 0.0 0.00 0.00 0.00 37 895.0
20220628091402 80 0 0.0 0.0 0.00 0.00 0.00 38 895.0
20220628091201 80 0 0.0 0.0 0.00 0.00 0.00 38 895.0
20220628091002 80 0 0.0 0.0 0.00 0.00 0.00 38 895.0
20220628090801 80 0 0.0 0.0 0.00 0.00 0.00 38 895.0
20220628090602 80 0 0.0 0.0 0.00 0.00 0.00 38 895.0
20220628090401 80 0 0.0 0.0 0.00 0.00 0.00 38 895.0
20220628090202 80 0 0.0 0.0 0.00 0.00 0.00 38 895.0
20220628090001 80 0 0.0 0.0 0.00 0.00 0.00 38 895.1
20220628085801 80 0 0.0 0.0 0.00 0.00 0.00 38 895.0
20220628085602 80 0 0.0 0.0 0.00 0.00 0.00 38 895.0
20220628085401 80 0 0.0 0.0 0.00 0.00 0.00 38 895.0
20220628085202 80 0 0.0 0.0 0.00 0.00 0.00 38 895.0
20220628085001 80 0 0.0 0.0 0.00 0.00 0.00 38 894.9
20220628084801 80 0 0.0 0.0 0.00 0.00 0.00 39 894.9
20220628084602 80 0 0.0 0.0 0.00 0.00 0.00 38 894.9
20220628084401 80 0 0.0 0.0 0.00 0.00 0.00 38 894.9
20220628084202 80 0 0.0 0.0 0.00 0.00 0.00 38 894.9
20220628084001 80 0 0.0 0.0 0.00 0.00 0.00 37 894.9
20220628083802 80 0 0.0 0.0 0.00 0.00 0.00 37 895.0
20220628083601 80 0 0.0 0.0 0.00 0.00 0.00 37 895.0
20220628083402 80 0 0.0 0.0 0.00 0.00 0.00 37 895.0
20220628083202 80 0 0.0 0.0 0.00 0.00 0.00 37 895.0
20220628083002 80 0 0.0 0.0 0.00 0.00 0.00 38 895.0
20220628082802 80 0 0.0 0.0 0.00 0.00 0.00 37 895.0
20220628082601 80 0 0.0 0.0 0.00 0.00 0.00 37 895.0
20220628082402 80 0 0.0 0.0 0.00 0.00 0.00 37 895.1
20220628082201 80 0 0.0 0.0 0.00 0.00 0.00 37 895.1
20220628082003 80 0 0.0 0.0 0.00 0.00 0.00 37 895.1
20220628081802 80 0 0.0 0.0 0.00 0.00 0.00 37 895.1
20220628081602 82 0 0.0 0.0 0.00 0.00 0.00 36 895.2
20220628081402 82 0 0.0 0.0 0.00 0.00 0.00 36 895.2
20220628081202 82 0 0.0 0.0 0.00 0.00 0.00 36 895.2
20220628081001 82 0 0.0 0.0 0.00 0.00 0.00 36 895.2
20220628080802 82 0 0.0 0.0 0.00 0.00 0.00 36 895.2
20220628080602 82 0 0.0 0.0 0.00 0.00 0.00 36 895.2
20220628080402 82 0 0.0 0.0 0.00 0.00 0.00 36 895.2
20220628080202 82 0 0.0 0.0 0.00 0.00 0.00 36 895.2
20220628080002 82 0 0.0 0.0 0.00 0.00 0.00 36 895.2
20220628075801 82 0 0.0 0.0 0.00 0.00 0.00 36 895.3
20220628075602 82 0 0.0 0.0 0.00 0.00 0.00 35 895.2
20220628075401 82 0 0.0 0.0 0.00 0.00 0.00 35 895.3
20220628075202 82 0 0.0 0.0 0.00 0.00 0.00 35 895.3
20220628075002 82 0 0.0 0.0 0.00 0.00 0.00 34 895.3
20220628074802 84 0 0.0 0.0 0.00 0.00 0.00 34 895.2
20220628074602 84 0 0.0 0.0 0.00 0.00 0.00 33 895.3
20220628074402 84 0 0.0 0.0 0.00 0.00 0.00 33 895.3
20220628074202 84 0 0.0 0.0 0.00 0.00 0.00 33 895.2
20220628074002 84 0 0.0 0.0 0.00 0.00 0.00 32 895.2
20220628073801 84 0 0.0 0.0 0.00 0.00 0.00 32 895.2
20220628073602 84 0 0.0 0.0 0.00 0.00 0.00 31 895.2
20220628073401 84 0 0.0 0.0 0.00 0.00 0.00 31 895.1
20220628073202 84 0 0.0 0.0 0.00 0.00 0.00 31 895.2
20220628073001 84 0 0.0 0.0 0.00 0.00 0.00 31 895.1
20220628072802 84 0 0.0 0.0 0.00 0.00 0.00 31 895.1
20220628072602 84 0 0.0 0.0 0.00 0.00 0.00 31 895.1
20220628072402 84 0 0.0 0.0 0.00 0.00 0.00 31 895.1
20220628072202 84 0 0.0 0.0 0.00 0.00 0.00 31 895.1
20220628072002 84 0 0.0 0.0 0.00 0.00 0.00 31 895.2
20220628071801 84 0 0.0 0.0 0.00 0.00 0.00 31 895.1
20220628071602 84 0 0.0 0.0 0.00 0.00 0.00 31 895.1
20220628071401 84 0 0.0 0.0 0.00 0.00 0.00 30 895.1
20220628071202 84 0 0.0 0.0 0.00 0.00 0.00 30 895.0
20220628071001 84 0 0.0 0.0 0.00 0.00 0.00 30 895.0
20220628070802 84 0 0.0 0.0 0.00 0.00 0.00 30 895.0
20220628070602 86 0 0.0 0.0 0.00 0.00 0.00 29 894.9
20220628070402 86 0 0.0 0.0 0.00 0.00 0.00 29 895.0
20220628070202 86 0 0.0 0.0 0.00 0.00 0.00 29 895.0
20220628070002 86 0 0.0 0.0 0.00 0.00 0.00 29 895.0
20220628065802 84 0 0.0 0.0 0.00 0.00 0.00 29 895.0
20220628065601 86 0 0.0 0.0 0.00 0.00 0.00 29 894.9
20220628065402 86 0 0.0 0.0 0.00 0.00 0.00 29 895.0
20220628065202 86 0 0.0 0.0 0.00 0.00 0.00 29 895.0
20220628065002 86 0 0.0 0.0 0.00 0.00 0.00 29 894.9
20220628064801 86 0 0.0 0.0 0.00 0.00 0.00 29 894.9
20220628064602 86 0 0.0 0.0 0.00 0.00 0.00 29 894.9
20220628064401 86 0 0.0 0.0 0.00 0.00 0.00 29 894.9
20220628064202 86 0 0.0 0.0 0.00 0.00 0.00 29 894.9
20220628064002 86 0 0.0 0.0 0.00 0.00 0.00 29 894.9
20220628063802 86 0 0.0 0.0 0.00 0.00 0.00 29 894.9
20220628063602 86 0 0.0 0.0 0.00 0.00 0.00 29 894.8
20220628063402 86 0 0.0 0.0 0.00 0.00 0.00 29 894.8
20220628063202 86 0 0.0 0.0 0.00 0.00 0.00 29 894.8
20220628063002 86 0 0.0 0.0 0.00 0.00 0.00 29 894.8
20220628062802 84 0 0.0 0.0 0.00 0.00 0.00 29 894.8
20220628062602 84 0 0.0 0.0 0.00 0.00 0.00 29 894.7
20220628062402 84 0 0.0 0.0 0.00 0.00 0.00 29 894.8
20220628062202 84 0 0.0 0.0 0.00 0.00 0.00 29 894.7
20220628062002 84 0 0.0 0.0 0.00 0.00 0.00 29 894.8
20220628061802 84 0 0.0 0.0 0.00 0.00 0.00 29 894.7
20220628061602 84 0 0.0 0.0 0.00 0.00 0.00 29 894.7
20220628061402 84 0 0.0 0.0 0.00 0.00 0.00 29 894.7
20220628061202 84 0 0.0 0.0 0.00 0.00 0.00 29 894.7
20220628061002 84 0 0.0 0.0 0.00 0.00 0.00 28 894.7
20220628060802 86 0 0.0 0.0 0.00 0.00 0.00 28 894.7
20220628060602 86 0 0.0 0.0 0.00 0.00 0.00 28 894.6
20220628060402 86 0 0.0 0.0 0.00 0.00 0.00 28 894.6
20220628060201 86 0 0.0 0.0 0.00 0.00 0.00 28 894.6
20220628060002 86 0 0.0 0.0 0.00 0.00 0.00 28 894.6
20220628055802 86 0 0.0 0.0 0.00 0.00 0.00 28 894.6
20220628055602 86 0 0.0 0.0 0.00 0.00 0.00 28 894.6
20220628055402 86 0 0.0 0.0 0.00 0.00 0.00 28 894.6
20220628055202 86 0 0.0 0.0 0.00 0.00 0.00 28 894.6
20220628055002 86 0 0.0 0.0 0.00 0.00 0.00 28 894.6
20220628054602 86 0 0.0 0.0 0.00 0.00 0.00 28 894.6
20220628054402 86 0 0.0 0.0 0.00 0.00 0.00 28 894.7
20220628054201 86 0 0.0 0.0 0.00 0.00 0.00 28 894.7
20220628054002 86 0 0.0 0.0 0.00 0.00 0.00 28 894.6
20220628053802 86 0 0.0 0.0 0.00 0.00 0.00 28 894.7
20220628053602 86 0 0.0 0.0 0.00 0.00 0.00 28 894.7
20220628053401 86 0 0.0 0.0 0.00 0.00 0.00 28 894.7
20220628053202 86 0 0.0 0.0 0.00 0.00 0.00 28 894.6
20220628053001 86 0 0.0 0.0 0.00 0.00 0.00 28 894.6
20220628052802 86 0 0.0 0.0 0.00 0.00 0.00 28 894.5
20220628052602 86 0 0.0 0.0 0.00 0.00 0.00 28 894.6
20220628052402 86 0 0.0 0.0 0.00 0.00 0.00 28 894.6
20220628052202 86 0 0.0 0.0 0.00 0.00 0.00 27 894.6
20220628052002 86 0 0.0 0.0 0.00 0.00 0.00 27 894.5
20220628051801 86 0 0.0 0.0 0.00 0.00 0.00 27 894.5
20220628051602 86 0 0.0 0.0 0.00 0.00 0.00 27 894.5
20220628051402 86 0 0.0 0.0 0.00 0.00 0.00 27 894.4
20220628051202 86 0 0.0 0.0 0.00 0.00 0.00 27 894.5
20220628051001 86 0 0.0 0.0 0.00 0.00 0.00 27 894.4
20220628050802 86 0 0.0 0.0 0.00 0.00 0.00 27 894.4
20220628050601 86 0 0.0 0.0 0.00 0.00 0.00 27 894.3
20220628050402 86 0 0.0 0.0 0.00 0.00 0.00 27 894.4
20220628050201 86 0 0.0 0.0 0.00 0.00 0.00 27 894.3
20220628050002 86 0 0.0 0.0 0.00 0.00 0.00 27 894.2
20220628045801 86 0 0.0 0.0 0.00 0.00 0.00 27 894.3
20220628045602 87 0 0.0 0.0 0.00 0.00 0.00 27 894.2
20220628045402 87 0 0.0 0.0 0.00 0.00 0.00 27 894.2
20220628045202 87 0 0.0 0.0 0.00 0.00 0.00 27 894.2
20220628045002 87 0 0.0 0.0 0.00 0.00 0.00 27 894.2
20220628044802 87 0 0.0 0.0 0.00 0.00 0.00 27 894.2
20220628044602 87 0 0.0 0.0 0.00 0.00 0.00 27 894.2
20220628044402 87 0 0.0 0.0 0.00 0.00 0.00 27 894.2
20220628044202 87 0 0.0 0.0 0.00 0.00 0.00 27 894.2
20220628044002 87 0 0.0 0.0 0.00 0.00 0.00 27 894.1
20220628043802 87 0 0.0 0.0 0.00 0.00 0.00 27 894.1
20220628043602 87 0 0.0 0.0 0.00 0.00 0.00 27 894.1
20220628043402 87 0 0.0 0.0 0.00 0.00 0.00 27 894.1
20220628043202 87 0 0.0 0.0 0.00 0.00 0.00 27 894.1
20220628043002 87 0 0.0 0.0 0.00 0.00 0.00 27 894.1